Location: *
(50.2903°S, 172.5375°W)
Time: 01:12:45
(UTC+00:00)

MOZ.5/SAFIR/RUBIN 5/SL-8 - Pass Details

Date: 17 November 2019
Orbit: 678 x 705 km, 98.1° (Epoch: 06 December)

Event Time Altitude Azimuth Distance (km) Brightness Sun altitude
Rises 14:32:28 0° 169° (SSE) 3,084 8.1 -8.2°
Reaches altitude 10° 14:34:44 10° 171° (S) 2,161 7.2 -8.0°
Maximum altitude 14:39:25 65° 251° (WSW) 765 3.9 -7.4°
Drops below altitude 10° 14:44:03 10° 332° (NNW) 2,137 5.7 -6.9°
Enters shadow 14:44:51 - 333° (NNW) 2,461 6.0 -6.8°
